Location: Chapel Hill
(35.9134°N, 79.0560°W)
Time: 22:50:32
(UTC-04:00)

Vanguard 3 - Pass Details

Date: 13 August 2025
Orbit: 507 x 3205 km, 33.4° (Epoch: 17 May)

Event Time Altitude Azimuth Distance (km) Brightness Sun altitude
Rises 02:47:52 0° 241° (WSW) 7,088 - -35.5°
Reaches altitude 10° 02:52:37 10° 239° (WSW) 6,120 - -35.1°
Exits shadow 03:06:23 52° 219° (SW) 3,510 9.8 -33.7°
Maximum altitude 03:11:53 68° 162° (SSE) 2,945 9.6 -33.1°
Drops below altitude 10° 03:25:23 10° 83° (E) 4,486 11.4 -31.6°
Sets 03:28:17 0° 81° (E) 5,183 11.9 -31.3°
